TimeEST,TemperatureF,Dew PointF,Humidity,Sea Level PressureIn,VisibilityMPH,Wind Direction,Wind SpeedMPH,Gust SpeedMPH,PrecipitationIn,Events,Conditions,WindDirDegrees,DateUTC
12:54 AM,34.0,26.1,73,30.18,10.0,WNW,9.2,-,N/A,,Clear,290,2012-12-15 05:54:00
1:54 AM,33.1,26.1,75,30.17,10.0,WNW,6.9,-,N/A,,Clear,290,2012-12-15 06:54:00
2:54 AM,33.1,26.1,75,30.21,10.0,West,8.1,-,N/A,,Partly Cloudy,260,2012-12-15 07:54:00
3:54 AM,34.0,27.0,75,30.22,10.0,West,6.9,-,N/A,,Overcast,280,2012-12-15 08:54:00
4:54 AM,33.1,27.0,78,30.24,10.0,WNW,6.9,-,N/A,,Overcast,290,2012-12-15 09:54:00
5:54 AM,33.1,26.1,75,30.25,10.0,NW,5.8,-,N/A,,Partly Cloudy,320,2012-12-15 10:54:00
6:54 AM,33.1,25.0,72,30.27,10.0,NNW,6.9,-,N/A,,Clear,330,2012-12-15 11:54:00
6:59 AM,33.1,24.1,70,30.24,10.0,NNW,8.1,-,N/A,,Clear,340,2012-12-15 11:59:00
7:54 AM,34.0,24.1,67,30.28,10.0,North,9.2,-,N/A,,Clear,360,2012-12-15 12:54:00
8:54 AM,35.1,21.9,59,30.29,10.0,NNW,12.7,-,N/A,,Clear,330,2012-12-15 13:54:00
9:16 AM,36.0,21.9,57,30.26,10.0,North,12.7,18.4,N/A,,Clear,350,2012-12-15 14:16:00
9:54 AM,37.0,21.9,54,30.30,10.0,Variable,5.8,-,N/A,,Clear,0,2012-12-15 14:54:00
10:54 AM,37.0,21.0,52,30.29,10.0,North,10.4,-,N/A,,Clear,350,2012-12-15 15:54:00
11:54 AM,39.0,19.0,45,30.28,10.0,NNW,9.2,-,N/A,,Clear,340,2012-12-15 16:54:00
12:42 PM,39.9,21.0,47,30.23,10.0,North,4.6,-,N/A,,Clear,350,2012-12-15 17:42:00
12:54 PM,39.9,19.9,45,30.26,10.0,North,5.8,-,N/A,,Clear,360,2012-12-15 17:54:00
1:54 PM,41.0,19.9,43,30.25,10.0,Variable,5.8,-,N/A,,Clear,0,2012-12-15 18:54:00
2:54 PM,41.0,18.0,40,30.26,10.0,North,4.6,-,N/A,,Clear,360,2012-12-15 19:54:00
3:54 PM,39.0,18.0,43,30.26,10.0,NNE,4.6,-,N/A,,Clear,20,2012-12-15 20:54:00
4:54 PM,36.0,17.1,46,30.27,10.0,ENE,5.8,-,N/A,,Clear,70,2012-12-15 21:54:00
5:54 PM,34.0,16.0,48,30.29,10.0,ENE,4.6,-,N/A,,Clear,70,2012-12-15 22:54:00
6:54 PM,32.0,17.1,54,30.30,10.0,East,4.6,-,N/A,,Clear,100,2012-12-15 23:54:00
7:54 PM,30.9,19.9,64,30.31,10.0,ESE,4.6,-,N/A,,Clear,120,2012-12-16 00:54:00
8:54 PM,30.0,21.0,69,30.32,10.0,ESE,3.5,-,N/A,,Clear,110,2012-12-16 01:54:00
9:54 PM,30.0,21.9,72,30.32,10.0,ESE,3.5,-,N/A,,Clear,110,2012-12-16 02:54:00
10:54 PM,30.0,23.0,75,30.31,10.0,East,4.6,-,N/A,,Clear,100,2012-12-16 03:54:00
11:28 PM,30.0,23.0,75,30.27,10.0,East,4.6,-,N/A,,Mostly Cloudy,80,2012-12-16 04:28:00
11:54 PM,28.9,23.0,78,30.31,10.0,Calm,Calm,-,N/A,,Overcast,0,2012-12-16 04:54:00